DLH2MG EDDN-EDDG

Flight info

Callsign DLH2MG
Flight time N/A
Altitude 24000
Route SULUS1C SULUS L604 MASEK Z52 ARPEG Z850 HMM HMM1A
Aircraft A21N/M-SDE2E3FGHIRWXY/LB1

Departure

Time 2026-04-28 15:19
Airport Nuremberg Airport (EDDN)

Arrival

Time N/A
Airport Münster Osnabrück Airport (EDDG)
Time Latitude Longitude Altitude Speed Heading
2026-04-28 14:39 49.49530 11.07660 1032 ft 0 kts 188°
2026-04-28 15:09 49.49533 11.07661 1031 ft 3 kts 188°
2026-04-28 15:09 49.49550 11.07664 1031 ft 4 kts 181°
2026-04-28 15:09 49.49584 11.07655 1031 ft 4 kts 149°
2026-04-28 15:09 49.49597 11.07640 1031 ft 4 kts 115°
2026-04-28 15:10 49.49600 11.07627 1031 ft 1 kts 98°
2026-04-28 15:13 49.49600 11.07628 1031 ft 1 kts 98°
2026-04-28 15:13 49.49595 11.07669 1032 ft 7 kts 98°
2026-04-28 15:13 49.49587 11.07752 1032 ft 0 kts 99°
2026-04-28 15:14 49.49599 11.07769 1032 ft 4 kts 17°
2026-04-28 15:14 49.49639 11.07773 1033 ft 7 kts 353°
2026-04-28 15:14 49.49683 11.07728 1032 ft 9 kts 294°
2026-04-28 15:15 49.49695 11.07628 1030 ft 10 kts 278°
2026-04-28 15:15 49.49706 11.07510 1029 ft 12 kts 278°
2026-04-28 15:15 49.49720 11.07374 1027 ft 14 kts 279°
2026-04-28 15:15 49.49730 11.07275 1028 ft 10 kts 278°
2026-04-28 15:16 49.49741 11.07159 1026 ft 12 kts 278°
2026-04-28 15:16 49.49755 11.07024 1026 ft 13 kts 279°
2026-04-28 15:16 49.49770 11.06876 1025 ft 15 kts 279°
2026-04-28 15:16 49.49786 11.06708 1025 ft 17 kts 278°
2026-04-28 15:17 49.49799 11.06579 1025 ft 9 kts 278°
2026-04-28 15:17 49.49810 11.06469 1025 ft 11 kts 278°
2026-04-28 15:17 49.49822 11.06341 1024 ft 13 kts 278°
2026-04-28 15:17 49.49838 11.06190 1023 ft 16 kts 279°
2026-04-28 15:18 49.49861 11.06017 1022 ft 18 kts 306°
2026-04-28 15:18 49.49965 11.05934 1029 ft 14 kts 350°
2026-04-28 15:18 49.50046 11.05994 1034 ft 16 kts 89°
2026-04-28 15:18 49.50031 11.06163 1031 ft 32 kts 99°
2026-04-28 15:19 49.49972 11.06898 1026 ft 105 kts 98°
2026-04-28 15:19 49.49823 11.08345 1046 ft 168 kts 97°
2026-04-28 15:19 49.49615 11.10254 1809 ft 189 kts 96°
2026-04-28 15:19 49.49403 11.12404 2484 ft 220 kts 96°
2026-04-28 15:20 49.49156 11.14938 3124 ft 254 kts 97°
2026-04-28 15:20 49.49001 11.17720 4343 ft 270 kts 82°
2026-04-28 15:20 49.49679 11.20484 5596 ft 288 kts 54°
2026-04-28 15:20 49.51176 11.22669 6823 ft 308 kts 39°
2026-04-28 15:21 49.52946 11.24656 7817 ft 321 kts 37°
2026-04-28 15:21 49.54691 11.26610 8592 ft 300 kts 37°
2026-04-28 15:21 49.56319 11.28475 9141 ft 286 kts 37°
2026-04-28 15:21 49.57994 11.30113 9422 ft 289 kts 22°
2026-04-28 15:22 49.59960 11.30729 9970 ft 291 kts 356°
2026-04-28 15:22 49.61901 11.29975 10776 ft 293 kts 335°
2026-04-28 15:22 49.63706 11.28469 11542 ft 296 kts 329°
2026-04-28 15:22 49.65488 11.26873 12257 ft 299 kts 329°
2026-04-28 15:23 49.67343 11.25243 13293 ft 315 kts 330°
2026-04-28 15:23 49.69337 11.23525 14191 ft 339 kts 330°
2026-04-28 15:23 49.71463 11.21707 15267 ft 358 kts 330°
2026-04-28 15:23 49.73713 11.19795 16364 ft 379 kts 330°
2026-04-28 15:24 49.76099 11.17771 17497 ft 402 kts 330°
2026-04-28 15:24 49.78632 11.15621 18590 ft 428 kts 330°
2026-04-28 15:24 49.81311 11.13350 19634 ft 449 kts 330°
2026-04-28 15:24 49.84002 11.11074 20795 ft 437 kts 329°
2026-04-28 15:25 49.86448 11.08332 21400 ft 431 kts 315°
2026-04-28 15:25 49.88421 11.04856 21728 ft 432 kts 308°
2026-04-28 15:25 49.90337 11.01240 22021 ft 435 kts 309°
2026-04-28 15:25 49.92344 10.97684 22271 ft 439 kts 311°
2026-04-28 15:26 49.94430 10.94182 22498 ft 444 kts 312°
2026-04-28 15:26 49.96572 10.90678 22732 ft 448 kts 313°
2026-04-28 15:26 49.98715 10.87202 22963 ft 453 kts 313°
2026-04-28 15:26 50.00909 10.83643 23201 ft 458 kts 313°
2026-04-28 15:27 50.03121 10.80042 23432 ft 463 kts 313°
2026-04-28 15:27 50.05358 10.76387 23661 ft 468 kts 313°
2026-04-28 15:27 50.07611 10.72707 23869 ft 473 kts 313°
2026-04-28 15:27 50.09901 10.68973 23972 ft 478 kts 313°
2026-04-28 15:28 50.12205 10.65231 24343 ft 477 kts 313°
2026-04-28 15:28 50.14495 10.61539 24474 ft 481 kts 313°
2026-04-28 15:28 50.16846 10.57795 24701 ft 484 kts 314°
2026-04-28 15:28 50.19255 10.54022 24411 ft 499 kts 314°
2026-04-28 15:29 50.21708 10.50288 24403 ft 508 kts 315°
2026-04-28 15:29 50.24387 10.46401 24381 ft 517 kts 317°
2026-04-28 15:29 50.27116 10.42679 24372 ft 525 kts 317°
2026-04-28 15:29 50.29860 10.38810 24369 ft 532 kts 316°
2026-04-28 15:30 50.32545 10.34760 24368 ft 540 kts 314°
2026-04-28 15:30 50.35152 10.30589 24378 ft 547 kts 313°
2026-04-28 15:30 50.37777 10.26189 24408 ft 554 kts 311°
2026-04-28 15:30 50.40347 10.21643 24425 ft 561 kts 310°
2026-04-28 15:31 50.42911 10.16883 24371 ft 585 kts 310°
2026-04-28 15:31 50.45411 10.11683 24191 ft 605 kts 305°
2026-04-28 15:31 50.47963 10.06364 24143 ft 614 kts 308°
2026-04-28 15:31 50.50790 10.01124 24170 ft 643 kts 311°
2026-04-28 15:32 50.53820 9.95878 24193 ft 652 kts 311°
2026-04-28 15:32 50.56765 9.90502 24206 ft 661 kts 310°
2026-04-28 15:32 50.59745 9.84926 24209 ft 671 kts 309°
2026-04-28 15:32 50.62742 9.79223 24208 ft 680 kts 309°
2026-04-28 15:33 50.65793 9.73412 24214 ft 690 kts 309°
2026-04-28 15:33 50.68872 9.67531 24213 ft 701 kts 309°
2026-04-28 15:33 50.71991 9.61509 24214 ft 712 kts 308°
2026-04-28 15:33 50.72787 9.59783 23792 ft 137 kts 301°
2026-04-28 15:34 50.73645 9.57553 21245 ft 313 kts 302°
2026-04-28 15:34 50.74558 9.54447 21649 ft 306 kts 285°
2026-04-28 15:34 50.74885 9.51181 22056 ft 299 kts 281°
2026-04-28 15:34 50.75137 9.47750 22273 ft 332 kts 276°
2026-04-28 15:35 50.75374 9.43928 22510 ft 368 kts 279°
2026-04-28 15:35 50.76238 9.35630 23901 ft 386 kts 282°
2026-04-28 15:35 50.76759 9.31512 24120 ft 389 kts 283°
2026-04-28 15:36 50.77311 9.27302 24197 ft 392 kts 283°
2026-04-28 15:36 50.77880 9.23057 24220 ft 399 kts 283°
2026-04-28 15:36 50.78465 9.18719 24226 ft 410 kts 283°
2026-04-28 15:36 50.79091 9.14061 24237 ft 457 kts 283°
2026-04-28 15:37 50.79769 9.08980 24249 ft 478 kts 282°
2026-04-28 15:37 50.80426 9.03787 24253 ft 486 kts 282°
2026-04-28 15:37 50.81124 8.98518 24267 ft 492 kts 283°
2026-04-28 15:37 50.81941 8.93305 24288 ft 499 kts 286°
2026-04-28 15:38 50.82960 8.88013 24329 ft 506 kts 289°
2026-04-28 15:38 50.84312 8.82855 24379 ft 512 kts 297°
2026-04-28 15:38 50.86022 8.77849 24381 ft 519 kts 298°
2026-04-28 15:38 50.87755 8.72754 24352 ft 528 kts 298°
2026-04-28 15:39 50.89498 8.67573 24343 ft 536 kts 298°
2026-04-28 15:39 50.91240 8.62314 24342 ft 544 kts 297°
2026-04-28 15:39 50.92990 8.56933 24351 ft 552 kts 297°
2026-04-28 15:39 50.94747 8.51468 24364 ft 560 kts 297°
2026-04-28 15:40 50.96502 8.45922 24380 ft 567 kts 297°
2026-04-28 15:40 50.98349 8.40329 24336 ft 576 kts 298°
2026-04-28 15:40 51.00242 8.34759 24274 ft 585 kts 299°
2026-04-28 15:40 51.02491 8.29342 24214 ft 593 kts 309°
2026-04-28 15:41 51.05454 8.24718 24216 ft 612 kts 320°
2026-04-28 15:41 51.09185 8.20918 24221 ft 654 kts 332°
2026-04-28 15:41 51.13455 8.18170 24230 ft 663 kts 340°
2026-04-28 15:41 51.17821 8.15718 24231 ft 670 kts 338°
2026-04-28 15:42 51.22087 8.12598 24231 ft 678 kts 332°
2026-04-28 15:42 51.26241 8.08943 24230 ft 688 kts 329°
2026-04-28 15:42 51.29924 8.05513 24866 ft 1 kts 329°
2026-04-28 15:42 51.30301 8.05118 21633 ft 220 kts 328°
2026-04-28 15:43 51.32166 8.03206 19461 ft 357 kts 328°
2026-04-28 15:43 51.34133 8.01234 21113 ft 318 kts 328°
2026-04-28 15:43 51.35996 7.99437 22507 ft 320 kts 329°
2026-04-28 15:43 51.38001 7.97682 23453 ft 336 kts 332°
2026-04-28 15:44 51.40160 7.95903 23954 ft 364 kts 331°
2026-04-28 15:44 51.42462 7.93940 24152 ft 380 kts 331°
2026-04-28 15:44 51.44796 7.91910 24224 ft 384 kts 330°
2026-04-28 15:44 51.47164 7.89822 24130 ft 392 kts 330°
2026-04-28 15:45 51.49704 7.88068 23964 ft 404 kts 341°
2026-04-28 15:45 51.52441 7.86754 23672 ft 418 kts 342°
2026-04-28 15:45 51.55275 7.85449 23110 ft 438 kts 344°
2026-04-28 15:45 51.58279 7.84049 22475 ft 460 kts 343°
2026-04-28 15:46 51.61427 7.82557 21862 ft 482 kts 343°
2026-04-28 15:46 51.64714 7.80965 21288 ft 504 kts 343°
2026-04-28 15:46 51.68117 7.79173 20765 ft 525 kts 341°
2026-04-28 15:46 51.71602 7.77032 20289 ft 544 kts 338°
2026-04-28 15:47 51.75074 7.74391 20350 ft 553 kts 332°
2026-04-28 15:47 51.78339 7.71280 20811 ft 553 kts 328°
2026-04-28 15:47 51.81507 7.67557 20534 ft 556 kts 318°
2026-04-28 15:47 51.83917 7.63360 24620 ft 469 kts 310°